Location: Devore Heights
(34.2372°N, 117.4156°W)
Time: 02:04:32
(UTC+00:00)

Vanguard 2 Rocket - Pass Details

Date: 11 September 2024
Orbit: 553 x 3298 km, 32.9° (Epoch: 09 October)

Event Time Altitude Azimuth Distance (km) Brightness Sun altitude
Exits shadow 13:02:31 - 272° (W) 5,412 10.2 -6.6°
Reaches altitude 10° 13:03:49 10° 272° (W) 5,134 10.1 -6.3°
Maximum altitude 13:20:36 84° 188° (S) 3,200 9.7 -2.9°
Drops below altitude 10° 13:40:58 10° 103° (ESE) 6,049 12.8 1.3°
Sets 13:45:16 0° 102° (ESE) 6,885 13.3 2.2°
